Regional Weather Roundup
Issued by NWS Sioux Falls, SD

Home | Current Version | Previous Version | Text Only | Print | Product List | Glossary On
Versions: 1 2 3 4 5 6 7 8 9 10 11 12 13 14 15 16 17 18 19 20 21 22 23 24 25 26 27 28 29 30 31 32 33 34 35 36 37 38 39 40 41 42 43 44 45 46 47 48 49 50
000
ASUS43 KFSD 292310
RWRFSD

WEATHER ROUNDUP FOR SE SOUTH DAKOTA/SW MINNESOTA/NW IOWA
NATIONAL WEATHER SERVICE SIOUX FALLS SD
600 PM CDT MON AUG 29 2016

NOTE: "FAIR" INDICATES FEW OR NO CLOUDS BELOW 12,000 FEET WITH NO
SIGNIFICANT WEATHER AND OR OBSTRUCTIONS TO VISIBILITY.


SDZ038>040-050-052>070-300000-
SOUTHEAST SOUTH DAKOTA

CITY           SKY/WX    TMP DP  RH WIND       PRES   REMARKS
BROOKINGS      PTSUNNY   84  70  62 S13       30.14S
CHAMBERLAIN    CLOUDY    89  69  51 SE8       30.10S
HURON          MOSUNNY   88  69  53 S9        30.09S
MADISON        FAIR      81  72  74 S8        30.16R
MITCHELL       CLOUDY    85  65  51 S12       30.11R
SIOUX FALLS    CLOUDY    82  69  64 S7        30.14S
WINNER         FAIR      88  67  49 SE12      30.13S
YANKTON        CLOUDY    81  66  61 SE9       30.12S
$$

MNZ071-072-080-081-089-090-097-098-300000-
SOUTHWEST MINNESOTA

CITY           SKY/WX    TMP DP  RH WIND       PRES   REMARKS
FAIRMONT       CLOUDY    80  70  71 S8        30.15F
JACKSON        MOSUNNY   82  70  65 SW7       30.16F
LUVERNE        PTSUNNY   79  68  69 S8        30.15F
MARSHALL       PTSUNNY   85  73  67 SW7       30.13S
MONTEVIDEO     MOSUNNY   88  75  66 SW6       30.13F HX  97
PIPESTONE        N/A     81  72  74 S5        30.16S
REDWOOD FALLS  MOSUNNY   84  71  65 SW9       30.12F
TRACY          CLOUDY    83  73  72 W5        30.14F
WINDOM         SUNNY     84  68  58 S6        30.15S
WORTHINGTON    MOSUNNY   80  70  71 S5        30.16F
$$

IAZ001>003-012>014-020>022-031-032-NEZ013-014-SDZ071-300000-
NORTHWEST IOWA

CITY           SKY/WX    TMP DP  RH WIND       PRES   REMARKS
CHEROKEE       CLOUDY    82  73  72 CALM      30.14S
DENISON        CLOUDY    81  72  74 E6        30.12S
ESTHERVILLE    CLOUDY    79  74  84 SE9       30.14F
LE MARS        MOSUNNY   84  73  70 SE7       30.14S
ORANGE CITY    PTSUNNY   82  73  74 S6        30.15F
SHELDON        MOSUNNY   81  73  78 S3        30.14S
SIOUX CITY     MOSUNNY   83  71  67 E6        30.12F
SPENCER        MOSUNNY   82  70  66 S5        30.14F
STORM LAKE     SUNNY     81  73  78 SE5       30.16S
$$

ABBREVIATIONS USED IN REMARKS
   TC - TEMPERATURE IN CELSIUS
  WCI - WIND CHILL INDEX
   HX - HEAT INDEX
  VSB - VISIBILITY





USA.gov is the U.S. government's official web portal to all federal, state and local government web resources and services.